Zurück zum Katalog

COSMOS 2251 DEB

AktivLEO
NORAD 34021·DEBRIS·🇷🇺 Russia

Gestartet Jun 16, 1993 von Plesetsk Cosmodrome

Loading…

Nächste Überflüge (nächste 24 Stunden)

TLE

AktuellSource: Space-Track

Epoche: Sep 14, 2026, 23:01 UTC

1 34021U 93036HG  26257.95944288  .00000711  00000-0  18764-3 0  9990
2 34021  74.0373 330.8223 0019274  41.2941 137.1141 14.50677412926340

Verfolge COSMOS 2251 DEB in Echtzeit mit AllMySat

Download on the App Store